H1 CPF 2 NER 2022 3 1 9 060 01 glonass140 H2 1903001 9140 44299 2022 3 1 0 0 0 2022 3 4 23 45 0 900 1 1 0 0 0 1 H9 10 0 59639 0.00000 0 -6586565.638 -21910661.899 11322518.239 10 0 59639 900.00000 0 -6815187.753 -23110641.780 8428863.829 10 0 59639 1800.00000 0 -7073529.637 -23929461.587 5371818.392 10 0 59639 2700.00000 0 -7306715.473 -24354346.293 2210619.621 10 0 59639 3600.00000 0 -7459430.647 -24385698.641 -993449.399 10 0 59639 4500.00000 0 -7478484.099 -24036990.118 -4178242.883 10 0 59639 5400.00000 0 -7315290.844 -23334123.533 -7281954.282 10 0 59639 6300.00000 0 -6928169.318 -22314293.428 -10244314.304 10 0 59639 7200.00000 0 -6284355.718 -21024391.551 -13007761.633 10 0 59639 8100.00000 0 -5361649.110 -19519023.824 -15518563.449 10 0 59639 9000.00000 0 -4149616.300 -17858221.531 -17727863.737 10 0 59639 9900.00000 0 -2650303.915 -16104942.483 -19592638.576 10 0 59639 10800.00000 0 -878425.632 -14322466.783 -21076539.536 10 0 59639 11700.00000 0 1138985.473 -12571796.295 -22150608.382 10 0 59639 12600.00000 0 3363446.973 -10909166.940 -22793848.722 10 0 59639 13500.00000 0 5746385.099 -9383778.166 -22993643.088 10 0 59639 14400.00000 0 8230925.666 -8035834.895 -22746006.814 10 0 59639 15300.00000 0 10754044.430 -6894984.177 -22055673.241 10 0 59639 16200.00000 0 13248988.106 -5979212.142 -20936008.050 10 0 59639 17100.00000 0 15647865.632 -5294247.421 -19408753.813 10 0 59639 18000.00000 0 17884301.638 -4833495.870 -17503609.270 10 0 59639 18900.00000 0 19896041.263 -4578508.822 -15257651.163 10 0 59639 19800.00000 0 21627397.195 -4499964.375 -12714609.663 10 0 59639 20700.00000 0 23031436.096 -4559119.421 -9924011.644 10 0 59639 21600.00000 0 24071812.605 -4709669.823 -6940208.797 10 0 59639 22500.00000 0 24724173.862 -4899938.761 -3821310.109 10 0 59639 23400.00000 0 24977075.712 -5075299.152 -628040.467 10 0 59639 24300.00000 0 24832372.599 -5180726.070 2577451.427 10 0 59639 25200.00000 0 24305065.559 -5163369.610 5732811.481 10 0 59639 26100.00000 0 23422615.807 -4975037.995 8776700.156 10 0 59639 27000.00000 0 22223754.130 -4574484.777 11649989.327 10 0 59639 27900.00000 0 20756837.496 -3929402.613 14296912.214 10 0 59639 28800.00000 0 19077823.280 -3018038.985 16666143.732 10 0 59639 29700.00000 0 17247947.194 -1830365.431 18711790.488 10 0 59639 30600.00000 0 15331203.007 -368751.006 20394271.828 10 0 59639 31500.00000 0 13391729.868 1351888.291 21681075.692 10 0 59639 32400.00000 0 11491216.259 3304470.470 22547375.891 10 0 59639 33300.00000 0 9686428.227 5450643.145 22976500.118 10 0 59639 34200.00000 0 8026963.931 7742156.719 22960240.922 10 0 59639 35100.00000 0 6553326.582 10122658.619 22499004.789 10 0 59639 36000.00000 0 5295394.391 12529834.826 21601797.298 10 0 59639 36900.00000 0 4271349.560 14897810.732 20286045.179 10 0 59639 37800.00000 0 3487109.325 17159712.846 18577258.854 10 0 59639 38700.00000 0 2936281.278 19250286.291 16508541.733 10 0 59639 39600.00000 0 2600643.755 21108460.496 14119955.224 10 0 59639 40500.00000 0 2451130.308 22679757.563 11457750.941 10 0 59639 41400.00000 0 2449276.510 23918443.959 8573483.955 10 0 59639 42300.00000 0 2549068.178 24789336.420 5523023.387 10 0 59639 43200.00000 0 2699113.244 25269187.025 2365478.529 10 0 59639 44100.00000 0 2845045.894 25347589.543 -837939.480 10 0 59639 45000.00000 0 2932061.673 25027368.791 -4025098.848 10 0 59639 45900.00000 0 2907476.448 24324436.192 -7134148.671 10 0 59639 46800.00000 0 2723200.866 23267116.857 -10104717.689 10 0 59639 47700.00000 0 2338025.145 21894975.619 -12879086.847 10 0 59639 48600.00000 0 1719616.776 20257190.471 -15403312.778 10 0 59639 49500.00000 0 846145.471 18410540.828 -17628280.099 10 0 59639 50400.00000 0 -292534.751 16417094.377 -19510661.677 10 0 59639 51300.00000 0 -1694198.017 14341688.928 -21013767.851 10 0 59639 52200.00000 0 -3344084.580 12249314.368 -22108267.743 10 0 59639 53100.00000 0 -5215273.134 10202504.197 -22772768.108 10 0 59639 54000.00000 0 -7269573.953 8258845.655 -22994238.117 10 0 59639 54900.00000 0 -9458907.217 6468712.619 -22768271.261 10 0 59639 55800.00000 0 -11727110.393 4873316.140 -22099178.778 10 0 59639 56700.00000 0 -14012100.247 3503154.146 -20999912.232 10 0 59639 57600.00000 0 -16248299.936 2376925.053 -19491816.199 10 0 59639 58500.00000 0 -18369229.992 1500950.519 -17604215.391 10 0 59639 59400.00000 0 -20310154.883 869131.001 -15373843.915 10 0 59639 60300.00000 0 -22010674.144 463435.113 -12844127.515 10 0 59639 61200.00000 0 -23417149.014 254901.197 -10064332.923 10 0 59639 62100.00000 0 -24484862.367 205107.497 -7088601.171 10 0 59639 63000.00000 0 -25179820.884 268047.365 -3974884.257 10 0 59639 63900.00000 0 -25480123.469 392328.604 -783806.839 10 0 59639 64800.00000 0 -25376838.510 523602.193 2422523.910 10 0 59639 65700.00000 0 -24874353.424 607115.930 5581736.011 10 0 59639 66600.00000 0 -23990182.522 590283.431 8632413.086 10 0 59639 67500.00000 0 -22754242.238 425158.471 11515292.889 10 0 59639 68400.00000 0 -21207625.295 70709.075 14174420.023 10 0 59639 69300.00000 0 -19400926.467 -505205.365 16558230.151 10 0 59639 70200.00000 0 -17392191.194 -1324237.688 18620544.812 10 0 59639 71100.00000 0 -15244573.696 -2396404.669 20321458.158 10 0 59639 72000.00000 0 -13023802.976 -3719435.030 21628099.237 10 0 59639 72900.00000 0 -10795562.436 -5278641.047 22515256.290 10 0 59639 73800.00000 0 -8622891.801 -7047319.198 22965852.262 10 0 59639 74700.00000 0 -6563718.626 -8987663.207 22971263.593 10 0 59639 75600.00000 0 -4668620.681 -11052151.831 22531477.280 10 0 59639 76500.00000 0 -2978910.612 -13185354.237 21655084.061 10 0 59639 77400.00000 0 -1525120.824 -15326078.662 20359108.367 10 0 59639 78300.00000 0 -325949.735 -17409776.041 18668678.507 10 0 59639 79200.00000 0 612288.326 -19371099.834 16616543.227 10 0 59639 80100.00000 0 1295688.122 -21146516.628 14242443.464 10 0 59639 81000.00000 0 1742253.481 -22676859.938 11592350.662 10 0 59639 81900.00000 0 1980894.055 -23909721.664 8717585.408 10 0 59639 82800.00000 0 2049961.350 -24801581.970 5673832.539 10 0 59639 83700.00000 0 1995385.835 -25319588.948 2520070.872 10 0 59639 84600.00000 0 1868493.568 -25442913.574 -682562.547 10 0 59639 85500.00000 0 1723594.324 -25163622.802 -3871952.129 10 0 59640 0.00000 0 1615443.063 -24487033.664 -6986204.609 10 0 59640 900.00000 0 1596682.051 -23431532.184 -9964849.651 10 0 59640 1800.00000 0 1715372.209 -22027864.650 -12750012.560 10 0 59640 2700.00000 0 2012718.502 -20317928.724 -15287541.823 10 0 59640 3600.00000 0 2521086.569 -18353114.774 -17528065.058 10 0 59640 4500.00000 0 3262395.545 -16192265.742 -19427954.182 10 0 59640 5400.00000 0 4246956.424 -13899340.180 -20950180.392 10 0 59640 6300.00000 0 5472806.699 -11540875.594 -22065041.982 10 0 59640 7200.00000 0 6925571.137 -9183357.730 -22750750.366 10 0 59640 8100.00000 0 8578856.462 -6890605.442 -22993862.505 10 0 59640 9000.00000 0 10395165.213 -4721280.142 -22789550.841 10 0 59640 9900.00000 0 12327292.023 -2726623.854 -22141704.939 10 0 59640 10800.00000 0 14320145.119 -948520.175 -21062862.331 10 0 59640 11700.00000 0 16312917.674 582040.965 -19573969.325 10 0 59640 12600.00000 0 18241518.545 1846030.799 -17703975.984 10 0 59640 13500.00000 0 20041160.677 2836937.324 -15489272.757 10 0 59640 14400.00000 0 21648998.463 3560786.479 -12972979.528 10 0 59640 15300.00000 0 23006702.883 4035629.061 -10204101.008 10 0 59640 16200.00000 0 24062865.717 4290516.302 -7236565.247 10 0 59640 17100.00000 0 24775131.178 4364008.897 -4128164.525 10 0 59640 18000.00000 0 25111964.756 4302284.120 -939420.198 10 0 59640 18900.00000 0 25053984.616 4156922.880 2267605.405 10 0 59640 19800.00000 0 24594799.449 3982472.117 5430525.850 10 0 59640 20700.00000 0 23741317.838 3833887.319 8487851.358 10 0 59640 21600.00000 0 22513516.725 3763964.850 11380188.875 10 0 59640 22500.00000 0 20943679.474 3820873.788 14051397.497 10 0 59640 23400.00000 0 19075136.470 4045892.356 16449676.455 10 0 59640 24300.00000 0 16960561.928 4471444.921 18528564.716 10 0 59640 25200.00000 0 14659898.892 5119522.441 20247833.355 10 0 59640 26100.00000 0 12237999.633 6000552.693 21574254.240 10 0 59640 27000.00000 0 9762079.889 7112767.537 22482231.323 10 0 59640 27900.00000 0 7299092.576 8442093.577 22954283.621 10 0 59640 28800.00000 0 4913129.425 9962570.647 22981371.790 10 0 59640 29700.00000 0 2662957.277 11637280.774 22563063.160 10 0 59640 30600.00000 0 599789.729 13419749.240 21707532.919 10 0 59640 31500.00000 0 -1234614.993 15255759.872 20431401.987 10 0 59640 32400.00000 0 -2809452.820 17085509.807 18759414.891 10 0 59640 33300.00000 0 -4105908.785 18846014.947 16723963.634 10 0 59640 34200.00000 0 -5117686.578 20473666.868 14364466.285 10 0 59640 35100.00000 0 -5851012.075 21906835.612 11726611.480 10 0 59640 36000.00000 0 -6324111.732 23088410.572 8861482.524 10 0 59640 36900.00000 0 -6566188.401 23968173.941 5824577.091 10 0 59640 37800.00000 0 -6615938.011 24504907.741 2674740.602 10 0 59640 38700.00000 0 -6519669.686 24668146.206 -526966.884 10 0 59640 39600.00000 0 -6329108.472 24439499.639 -3718448.809 10 0 59640 40500.00000 0 -6098973.388 23813493.497 -6837772.800 10 0 59640 41400.00000 0 -5884433.086 22797886.520 -9824370.841 10 0 59640 42300.00000 0 -5738546.760 21413453.307 -12620215.458 10 0 59640 43200.00000 0 -5709798.899 19693239.169 -15170949.016 10 0 59640 44100.00000 0 -5839832.665 17681317.108 -17426943.874 10 0 59640 45000.00000 0 -6161478.586 15431097.772 -19344272.448 10 0 59640 45900.00000 0 -6697162.946 13003261.945 -20885567.961 10 0 59640 46800.00000 0 -7457764.461 10463401.046 -22020758.786 10 0 59640 47700.00000 0 -8441968.958 7879463.518 -22727661.622 10 0 59640 48600.00000 0 -9636150.899 5319113.135 -22992421.572 10 0 59640 49500.00000 0 -11014788.401 2847109.049 -22809790.070 10 0 59640 50400.00000 0 -12541395.801 522816.719 -22183234.709 10 0 59640 51300.00000 0 -14169935.892 -1602046.672 -21124878.310 10 0 59640 52200.00000 0 -15846653.574 -3485338.402 -19655267.861 10 0 59640 53100.00000 0 -17512254.503 -5096007.732 -17802977.338 10 0 59640 54000.00000 0 -19104337.527 -6415141.791 -15604051.764 10 0 59640 54900.00000 0 -20559978.602 -7436496.711 -13101303.107 10 0 59640 55800.00000 0 -21818357.109 -8166492.593 -10343471.798 10 0 59640 56700.00000 0 -22823313.466 -8623673.833 -7384270.485 10 0 59640 57600.00000 0 -23525729.645 -8837658.999 -4281329.202 10 0 59640 58500.00000 0 -23885631.575 -8847626.240 -1095063.416 10 0 59640 59400.00000 0 -23873924.299 -8700400.062 2112512.033 10 0 59640 60300.00000 0 -23473686.413 -8448222.193 5278998.936 10 0 59640 61200.00000 0 -22680969.162 -8146302.591 8342836.801 10 0 59640 62100.00000 0 -21505066.799 -7850255.761 11244504.426 10 0 59640 63000.00000 0 -19968247.259 -7613532.101 13927677.972 10 0 59640 63900.00000 0 -18104955.113 -7484953.679 16340322.634 10 0 59640 64800.00000 0 -15960520.889 -7506459.053 18435696.934 10 0 59640 65700.00000 0 -13589431.352 -7711152.333 20173250.655 10 0 59640 66600.00000 0 -11053233.429 -8121738.475 21519399.849 10 0 59640 67500.00000 0 -8418159.282 -8749410.214 22448165.082 10 0 59640 68400.00000 0 -5752571.002 -9593232.920 22941661.872 10 0 59640 69300.00000 0 -3124330.539 -10640052.751 22990435.057 10 0 59640 70200.00000 0 -598202.895 -11864931.696 22593631.843 10 0 59640 71100.00000 0 1766601.152 -13232091.378 21759011.054 10 0 59640 72000.00000 0 3918642.467 -14696326.402 20502788.967 10 0 59640 72900.00000 0 5816140.957 -16204828.825 18849324.925 10 0 59640 73800.00000 0 7428456.441 -17699348.358 16830652.566 10 0 59640 74700.00000 0 8737102.989 -19118598.978 14485865.250 10 0 59640 75600.00000 0 9736256.085 -20400812.334 11860366.790 10 0 59640 76500.00000 0 10432732.617 -21486332.071 9005001.015 10 0 59640 77400.00000 0 10845445.416 -22320141.116 5975076.109 10 0 59640 78300.00000 0 11004355.811 -22854216.469 2829301.673 10 0 59640 79200.00000 0 10948968.516 -23049612.764 -371341.697 10 0 59640 80100.00000 0 10726432.242 -22878186.865 -3564778.938 10 0 59640 81000.00000 0 10389326.094 -22323890.318 -6689040.727 10 0 59640 81900.00000 0 9993225.106 -21383574.377 -9683464.287 10 0 59640 82800.00000 0 9594147.700 -20067272.428 -12489871.353 10 0 59640 83700.00000 0 9245993.101 -18397946.484 -15053700.314 10 0 59640 84600.00000 0 8998077.316 -16410706.754 -17325070.276 10 0 59640 85500.00000 0 8892872.357 -14151535.446 -19259755.971 10 0 59641 0.00000 0 8964044.956 -11675566.969 -20820054.093 10 0 59641 900.00000 0 9234878.664 -9044993.740 -21975524.658 10 0 59641 1800.00000 0 9717146.924 -6326687.405 -22703590.443 10 0 59641 2700.00000 0 10410486.048 -3589629.429 -22989985.295 10 0 59641 3600.00000 0 11302295.831 -902260.834 -22829039.887 10 0 59641 4500.00000 0 12368173.256 1670140.081 -22223799.745 10 0 59641 5400.00000 0 13572862.216 4067942.831 -21185972.577 10 0 59641 6300.00000 0 14871680.246 6239409.265 -19735705.343 10 0 59641 7200.00000 0 16212362.841 8142603.961 -17901194.934 10 0 59641 8100.00000 0 17537248.046 9746891.087 -15718139.655 10 0 59641 9000.00000 0 18785709.311 11033955.593 -13229041.950 10 0 59641 9900.00000 0 19896733.705 11998306.655 -10482376.032 10 0 59641 10800.00000 0 20811536.219 12647243.321 -7531636.888 10 0 59641 11700.00000 0 21476099.107 13000285.154 -4434289.753 10 0 59641 12600.00000 0 21843528.272 13088093.403 -1250641.395 10 0 59641 13500.00000 0 21876126.502 12950930.052 1957343.819 10 0 59641 14400.00000 0 21547095.436 12636721.659 5127258.959 10 0 59641 15300.00000 0 20841794.098 12198811.666 8197475.856 10 0 59641 16200.00000 0 19758500.854 11693497.869 11108348.094 10 0 59641 17100.00000 0 18308646.785 11177460.559 13803371.637 10 0 59641 18000.00000 0 16516511.042 10705191.013 16230280.161 10 0 59641 18900.00000 0 14418391.376 10326529.520 18342053.983 10 0 59641 19800.00000 0 12061284.942 10084416.960 20097823.533 10 0 59641 20700.00000 0 9501134.880 10012954.404 21463650.647 10 0 59641 21600.00000 0 6800715.816 10135851.877 22413173.741 10 0 59641 22500.00000 0 4027245.990 10465330.744 22928105.653 10 0 59641 23400.00000 0 1249824.726 11001525.042 22998575.777 10 0 59641 24300.00000 0 -1463199.470 11732406.215 22623311.080 10 0 59641 25200.00000 0 -4046822.374 12634233.984 21809653.382 10 0 59641 26100.00000 0 -6441833.069 13672514.339 20573413.163 10 0 59641 27000.00000 0 -8597018.779 14803424.742 18938562.930 10 0 59641 27900.00000 0 -10471035.819 15975647.410 16936775.852 10 0 59641 28800.00000 0 -12033870.573 17132534.623 14606818.124 10 0 59641 29700.00000 0 -13267831.305 18214516.244 11993806.005 10 0 59641 30600.00000 0 -14168030.724 19161649.395 9148340.960 10 0 59641 31500.00000 0 -14742340.073 19916204.071 6125538.718 10 0 59641 32400.00000 0 -15010817.397 20425176.667 2983970.103 10 0 59641 33300.00000 0 -15004634.303 20642625.984 -215466.664 10 0 59641 34200.00000 0 -14764546.475 20531733.317 -3410720.839 10 0 59641 35100.00000 0 -14338972.289 20066499.385 -6539788.848 10 0 59641 36000.00000 0 -13781760.435 19233005.734 -9541915.693 10 0 59641 36900.00000 0 -13149740.603 18030186.251 -12358774.647 10 0 59641 37800.00000 0 -12500160.606 16470074.793 -14935602.210 10 0 59641 38700.00000 0 -11888118.286 14577516.723 -17222266.035 10 0 59641 39600.00000 0 -11364096.885 12389354.707 -19174244.645 10 0 59641 40500.00000 0 -10971708.418 9953121.055 -20753499.620 10 0 59641 41400.00000 0 -10745740.902 7325289.640 -21929222.885 10 0 59641 42300.00000 0 -10710592.619 4569159.085 -22678444.119 10 0 59641 43200.00000 0 -10879160.362 1752454.308 -22986486.088 10 0 59641 44100.00000 0 -11252229.480 -1055254.458 -22847258.535 10 0 59641 45000.00000 0 -11818392.427 -3785208.210 -22263384.401 10 0 59641 45900.00000 0 -12554500.117 -6372080.999 -21246155.394 10 0 59641 46800.00000 0 -13426627.840 -8756458.102 -19815317.187 10 0 59641 47700.00000 0 -14391515.524 -10887067.254 -17998687.984 10 0 59641 48600.00000 0 -15398421.883 -12722670.057 -15831617.460 10 0 59641 49500.00000 0 -16391314.198 -14233534.847 -13356296.374 10 0 59641 50400.00000 0 -17311300.911 -15402429.789 -10620930.371 10 0 59641 51300.00000 0 -18099203.723 -16225095.401 -7678794.312 10 0 59641 52200.00000 0 -18698159.694 -16710177.728 -4587186.092 10 0 59641 53100.00000 0 -19056142.442 -16878626.328 -1406301.207 10 0 59641 54000.00000 0 -19128294.970 -16762584.088 1801949.028 10 0 59641 54900.00000 0 -18878974.699 -16403817.489 4975151.551 10 0 59641 55800.00000 0 -18283423.708 -15851755.404 8051613.092 10 0 59641 56700.00000 0 -17328993.301 -15161221.020 10971564.553 10 0 59641 57600.00000 0 -16015871.091 -14389954.205 13678324.143 10 0 59641 58500.00000 0 -14357280.108 -13596030.093 16119396.302 10 0 59641 59400.00000 0 -12379141.731 -12835283.561 18247485.188 10 0 59641 60300.00000 0 -10119216.787 -12158848.450 20021403.600 10 0 59641 61200.00000 0 -7625760.942 -11610914.954 21406860.508 10 0 59641 62100.00000 0 -4955750.481 -11226798.928 22377113.097 10 0 59641 63000.00000 0 -2172752.055 -11031403.351 22913472.010 10 0 59641 63900.00000 0 655475.544 -11038135.496 23005651.242 10 0 59641 64800.00000 0 3459548.989 -11248324.196 22651957.158 10 0 59641 65700.00000 0 6171092.178 -11651160.733 21859313.847 10 0 59641 66600.00000 0 8725324.458 -12224165.227 20643124.942 10 0 59641 67500.00000 0 11063499.714 -12934158.666 19026974.772 10 0 59641 68400.00000 0 13135096.890 -13738699.923 17042174.442 10 0 59641 69300.00000 0 14899672.578 -14587927.868 14727161.128 10 0 59641 70200.00000 0 16328300.187 -15426731.905 12126761.440 10 0 59641 71100.00000 0 17404537.036 -16197160.531 9291332.138 10 0 59641 72000.00000 0 18124879.969 -16840967.429 6275793.933 10 0 59641 72900.00000 0 18498691.107 -17302188.589 3138576.125 10 0 59641 73800.00000 0 18547597.326 -17529642.309 -59508.299 10 0 59641 74700.00000 0 18304388.684 -17479246.801 -3256435.818 10 0 59641 75600.00000 0 17811462.159 -17116057.325 -6390171.447 10 0 59641 76500.00000 0 17118875.983 -16415936.216 -9399870.688 10 0 59641 77400.00000 0 16282096.361 -15366784.243 -12227060.872 10 0 59641 78300.00000 0 15359531.402 -13969279.924 -14816778.909 10 0 59641 79200.00000 0 14409956.178 -12237093.869 -17118643.021 10 0 59641 80100.00000 0 13489937.559 -10196567.233 -19087837.267 10 0 59641 81000.00000 0 12651367.618 -7885865.752 -20685989.400 10 0 59641 81900.00000 0 11939209.937 -5353642.829 -21881924.609 10 0 59641 82800.00000 0 11389554.267 -2657265.887 -22652280.019 10 0 59641 83700.00000 0 11028062.097 139321.459 -22981967.631 10 0 59641 84600.00000 0 10868869.228 2968013.514 -22864476.197 10 0 59641 85500.00000 0 10913992.239 5759133.031 -22302005.646 10 0 59642 0.00000 0 11153264.383 8444090.654 -21305431.019 10 0 59642 900.00000 0 11564804.251 10958004.224 -19894095.438 10 0 59642 1800.00000 0 12115997.390 13242165.272 -18095437.113 10 0 59642 2700.00000 0 12764949.936 15246254.727 -15944455.427 10 0 59642 3600.00000 0 13462352.459 16930211.745 -13483027.522 10 0 59642 4500.00000 0 14153674.904 18265679.155 -10759088.277 10 0 59642 5400.00000 0 14781599.132 19236965.213 -7825689.972 10 0 59642 6300.00000 0 15288585.273 19841482.054 -4739960.480 10 0 59642 7200.00000 0 15619462.277 20089643.454 -1561981.176 10 0 59642 8100.00000 0 15723931.971 20004227.605 1646392.639 10 0 59642 9000.00000 0 15558879.704 19619233.345 4822744.746 10 0 59642 9900.00000 0 15090392.995 18978279.807 7905319.678 10 0 59642 10800.00000 0 14295402.290 18132618.728 10834228.404 10 0 59642 11700.00000 0 13162874.151 17138844.883 13552613.926 10 0 59642 12600.00000 0 11694506.465 16056402.483 16007753.735 10 0 59642 13500.00000 0 9904896.399 14944993.586 18152077.846 10 0 59642 14400.00000 0 7821174.111 13861998.036 19944083.153 10 0 59642 15300.00000 0 5482117.629 12860013.461 21349127.164 10 0 59642 16200.00000 0 2936785.826 11984618.128 22340086.899 10 0 59642 17100.00000 0 242726.127 11272449.632 22897871.488 10 0 59642 18000.00000 0 -2536168.922 10749678.826 23011779.805 10 0 59642 18900.00000 0 -5332068.068 10430941.613 22679697.426 10 0 59642 19800.00000 0 -8075772.074 10318772.056 21908130.035 10 0 59642 20700.00000 0 -10699343.436 10403559.475 20712073.231 10 0 59642 21600.00000 0 -13138687.667 10664030.494 19114721.484 10 0 59642 22500.00000 0 -15335980.722 11068235.385 17147021.684 10 0 59642 23400.00000 0 -17241843.306 11574997.252 14847079.450 10 0 59642 24300.00000 0 -18817173.184 12135763.434 12259428.896 10 0 59642 25200.00000 0 -20034560.447 12696781.802 9434179.046 10 0 59642 26100.00000 0 -20879227.615 13201510.985 6426052.474 10 0 59642 27000.00000 0 -21349455.974 13593163.572 3293333.840 10 0 59642 27900.00000 0 -21456480.650 13817275.532 96747.855 10 0 59642 28800.00000 0 -21223858.859 13824193.615 -3101712.104 10 0 59642 29700.00000 0 -20686337.765 13571375.594 -6239982.432 10 0 59642 30600.00000 0 -19888269.258 13025405.642 -9257131.736 10 0 59642 31500.00000 0 -18881638.034 12163638.856 -12094543.826 10 0 59642 32400.00000 0 -17723785.688 10975404.152 -14697058.178 10 0 59642 33300.00000 0 -16474926.391 9462713.154 -17014045.449 10 0 59642 34200.00000 0 -15195558.656 7640443.303 -19000396.751 10 0 59642 35100.00000 0 -13943882.130 5535985.420 -20617407.144 10 0 59642 36000.00000 0 -12773328.255 3188368.340 -21833535.792 10 0 59642 36900.00000 0 -11730308.940 646895.345 -22625027.559 10 0 59642 37800.00000 0 -10852278.269 -2030652.397 -22976383.550 10 0 59642 38700.00000 0 -10166189.098 -4780171.955 -22880670.990 10 0 59642 39600.00000 0 -9687409.871 -7533665.413 -22339665.857 10 0 59642 40500.00000 0 -9419147.507 -10221836.995 -21363824.998 10 0 59642 41400.00000 0 -9352400.837 -12776752.804 -19972087.698 10 0 59642 42300.00000 0 -9466446.622 -15134452.368 -18191510.075 10 0 59642 43200.00000 0 -9729837.485 -17237403.115 -16056739.027 10 0 59642 44100.00000 0 -10101869.249 -19036695.231 -13609335.712 10 0 59642 45000.00000 0 -10534455.102 -20493885.020 -10896961.770 10 0 59642 45900.00000 0 -10974326.464 -21582409.767 -7972444.393 10 0 59642 46800.00000 0 -11365466.416 -22288515.140 -4892738.959 10 0 59642 47700.00000 0 -11651671.505 -22611656.840 -1717810.292 10 0 59642 48600.00000 0 -11779132.212 -22564360.643 1490544.671 10 0 59642 49500.00000 0 -11698921.656 -22171548.051 4669908.838 10 0 59642 50400.00000 0 -11369286.158 -21469357.438 7758466.771 10 0 59642 51300.00000 0 -10757639.956 -20503512.042 10696211.668 10 0 59642 52200.00000 0 -9842179.175 -19327305.113 13426113.406 10 0 59642 53100.00000 0 -8613046.650 -17999288.499 15895224.481 10 0 59642 54000.00000 0 -7072998.365 -16580763.016 18055702.542 10 0 59642 54900.00000 0 -5237543.431 -15133176.733 19865730.116 10 0 59642 55800.00000 0 -3134551.786 -13715540.609 21290314.494 10 0 59642 56700.00000 0 -803345.863 -12381969.501 22301953.449 10 0 59642 57600.00000 0 1706686.085 -11179450.736 22881155.163 10 0 59642 58500.00000 0 4337897.717 -10145932.476 23016803.575 10 0 59642 59400.00000 0 7026538.992 -9308810.400 22706363.324 10 0 59642 60300.00000 0 9705168.794 -8683874.417 21955921.202 10 0 59642 61200.00000 0 12305226.887 -8274758.034 20780063.988 10 0 59642 62100.00000 0 14759659.951 -8072912.124 19201595.217 10 0 59642 63000.00000 0 17005494.313 -8058103.226 17251096.214 10 0 59642 63900.00000 0 18986249.922 -8199414.907 14966339.414 10 0 59642 64800.00000 0 20654096.674 -8456709.924 12391564.534 10 0 59642 65700.00000 0 21971664.482 -8782491.834 9576630.665 10 0 59642 66600.00000 0 22913432.456 -9124088.053 6576059.768 10 0 59642 67500.00000 0 23466639.815 -9426062.795 3447989.120 10 0 59642 68400.00000 0 23631680.658 -9632758.536 253052.213 10 0 59642 69300.00000 0 23421966.063 -9690858.948 -2946790.781 10 0 59642 70200.00000 0 22863259.039 -9551865.038 -6089450.705 10 0 59642 71100.00000 0 21992509.883 -9174379.489 -9113912.251 10 0 59642 72000.00000 0 20856240.374 -8526101.968 -11961418.497 10 0 59642 72900.00000 0 19508544.277 -7585449.977 -14576614.011 10 0 59642 73800.00000 0 18008787.745 -6342735.330 -16908624.106 10 0 59642 74700.00000 0 16419106.007 -4800844.878 -18912048.827 10 0 59642 75600.00000 0 14801801.305 -2975394.777 -20547852.072 10 0 59642 76500.00000 0 13216751.330 -894349.635 -21784128.165 10 0 59642 77400.00000 0 11718937.041 1402879.547 -22596730.513 10 0 59642 78300.00000 0 10356193.772 3866822.912 -22969749.762 10 0 59642 79200.00000 0 9167280.181 6439768.487 -22895831.651 10 0 59642 80100.00000 0 8180346.308 9057933.609 -22376327.868 10 0 59642 81000.00000 0 7411865.150 11653901.481 -21421276.459 10 0 59642 81900.00000 0 6866072.633 14159221.886 -20049211.602 10 0 59642 82800.00000 0 6534939.404 16507067.772 -18286805.963 10 0 59642 83700.00000 0 6398675.244 18634836.873 -16168352.197 10 0 59642 84600.00000 0 6426744.242 20486589.530 -13735093.398 10 0 59642 85500.00000 0 6579347.122 22015220.454 -11034415.608 99